C/2017 S6 ( Catalina )

Japanese version
Home page
Updated on February 13, 2018

---------------------------------------------------------------------

* Profile

Discovery Date September 30, 2017
Magnitude 17.9 mag
Discoverer G. J. Leonard (Catalina Sky Survey)

* Pictures

* Orbital Elements

Epoch 2018 Feb. 11.0 TT = JDT 2458160.5
T 2018 Feb. 26.93442 TT                                 MPCW
q   1.5429200            (2000.0)            P               Q
z  -0.0008703      Peri.  134.68772     +0.93845382     -0.00781064
 +/-0.0000181      Node   130.87473     -0.23727452     -0.74110015
e   1.0013427      Incl.  152.82680     +0.25100841     -0.67134906
From 209 observations 2017 Sept. 30-2018 Jan. 19, mean residual 0".6.

* Finding Charts

* Magnitudes Graph

        m1 = 12.5 + 5 log d + 10.0 log r

---------------------------------------------------------------------

The orbital elements are published on M.P.E.C. 2018-B155.
The charts are made with StellaNavigator Ver.10 (AstroArts).
The magnitudes graphs are made with Comet for Windows.

---------------------------------------------------------------------

Copyright(C) Seiichi Yoshida (comet@aerith.net). All rights reserved.